Flag for Canada Weather past 2 weeks in Glace Bay, Nova Scotia, Canada

Now
63 °F

Fog.


Feels Like: 63 °F
Forecast: 57 / 63 °F
Wind: 13 mph from South

Location: Sydney

Current Time: Jul 29, 2015 at 3:26:17 PM

Latest Report: Jul 29, 2015 at 3:00 PM


Visibility: 1 mi

Pressure: 29.88 "Hg

Humidity: 100%

Dew point: 63 °F

Location of Glace BayLocation

Historic Weather in Glace Bay — Graph

°F

Glace Bay temperature yesterday

Maximum temperature yesterday: 68 °F (at 3:00 PM)
Minimum temperature yesterday: 59 °F (at 12:00 AM)
Average temperature yesterday: 63 °F

Past Weeks' High & Low Weather Summary

 TemperatureHumidityPressure
High77 °F (Jul 18, 1:00 PM)100% (Jul 14, 11:49 PM)30.20 "Hg (Jul 14, 11:49 PM)
Low48 °F (Jul 17, 2:00 AM)36% (Jul 18, 1:00 PM)29.55 "Hg (Jul 23, 4:00 AM)
Average59 °F88%29.90 "Hg
* Reported Jul 14 2:00 PM — Jul 29 2:00 PM, Glace Bay, Weather by CustomWeather, © 2015

Note: Actual official high and low records may vary slightly from our data, if they occured in-between our weather recording intervals... More about our weather records

Advertising

Glace Bay weather history for previous 24 hours

 ConditionsComfort  
Time TempWeatherWind HumidityBarometerVisibility
2:00 PM
Wed, Jul 29
64 °FFog.10 mph94%29.89 "Hg5 mi
1:00 PM64 °FFog.7 mph94%29.90 "Hg3 mi
12:00 PM64 °FFog.15 mph94%29.90 "Hg5 mi
11:00 AM64 °FFog.8 mph94%29.90 "Hg5 mi
10:00 AM63 °FFog.12 mph100%29.91 "Hg2 mi
9:00 AM63 °FFog.10 mph100%29.92 "Hg2 mi
8:00 AM63 °FFog.12 mph94%29.91 "Hg1 mi
7:52 AM63 °FFog.13 mph94%29.91 "Hg1 mi
7:00 AM63 °FLight rain. Fog.12 mph100%29.91 "Hg1 mi
6:00 AM63 °FLight rain. Fog.12 mph94%29.92 "Hg1 mi
5:00 AM63 °FLight rain. Fog.13 mph100%29.91 "Hg4 mi
4:00 AM63 °FLight rain. Fog.12 mph100%29.92 "Hg5 mi
3:00 AM63 °FLight rain. Fog.13 mph100%29.93 "Hg3 mi
2:00 AM63 °FLight rain. Fog.13 mph100%29.95 "Hg5 mi
1:00 AM63 °FRain. Fog.12 mph100%29.96 "Hg4 mi
12:00 AM63 °FLight rain. Fog.9 mph100%29.97 "Hg5 mi
11:54 PM
Tue, Jul 28
63 °FLight rain. Fog.10 mph100%29.97 "Hg4 mi
11:00 PM63 °FLight rain. Fog.13 mph100%29.99 "Hg5 mi
10:00 PM63 °FRain. Fog.10 mph100%30.01 "Hg4 mi
9:46 PM63 °FRain. Fog.9 mph100%30.01 "Hg4 mi
9:00 PM63 °FLight rain. Mostly cloudy.12 mph100%30.01 "Hg4 mi
8:00 PM63 °FLight rain. Mostly cloudy.12 mph100%30.01 "Hg5 mi
7:00 PM64 °FSprinkles. Mostly cloudy.13 mph94%30.02 "Hg3 mi
6:00 PM64 °FLight rain. Mostly cloudy.13 mph100%30.01 "Hg10 mi
5:00 PM66 °FCloudy.14 mph94%30.01 "Hg15 mi
4:00 PM68 °FBroken clouds.18 mph88%30.02 "Hg15 mi
3:00 PM68 °FPartly sunny.16 mph88%30.00 "Hg15 mi
Weather by CustomWeather, © 2015

See weather overviewHow to use our weather pages